Tracking 30466 objects as of 17-May-2025
HD Live streaming from Space Station
objects crossing your sky now

COSMOS 778

Track COSMOS 778 now!
10-day predictions
COSMOS 778 is classified as:


NORAD ID: 8419
Int'l Code: 1975-103A
Perigee: 974.3 km
Apogee: 1,004.7 km
Inclination: 83.0 °
Period: 104.7 minutes
Semi major axis: 7360 km
RCS: 2.3884 m2 (large)
Launch date: November 4, 1975
Source: Commonwealth of Independent States (former USSR) (CIS)
Launch site: PLESETSK MISSILE AND SPACE COMPLEX (PKMTR)
Your satellite tracking list
Your tracking list is empty




NASA's NSSDC Master Catalog

Two Line Element Set (TLE):
1 08419U 75103A   25136.79041506  .00000084  00000-0  72003-4 0  9995
2 08419  82.9761 226.2311 0020675 239.6170 240.7715 13.74808419484122
Source of the keplerian elements: AFSPC